Time,TemperatureF,DewpointF,PressureIn,WindDirection,WindDirectionDegrees,WindSpeedMPH,WindSpeedGustMPH,Humidity,HourlyPrecipIn,Conditions,Clouds,dailyrainin,SoftwareType,DateUTC
2013-01-11 00:03:00,32.0,30.0,-100.00,ESE,120,0.0,6.0,95,0.00,,,0.00,,2013-01-11 06:03:00,
2013-01-11 00:12:00,32.0,30.0,-100.00,ESE,120,2.0,6.0,95,0.00,,,0.00,,2013-01-11 06:12:00,
2013-01-11 00:22:00,32.0,30.0,-100.00,ESE,120,1.0,4.0,95,0.00,,,0.00,,2013-01-11 06:22:00,
2013-01-11 00:32:00,32.0,32.0,-100.00,ESE,120,2.0,4.0,96,0.00,,,0.00,,2013-01-11 06:32:00,
2013-01-11 00:42:00,32.0,32.0,-100.00,ESE,120,1.0,5.0,96,0.00,,,0.00,,2013-01-11 06:42:00,
2013-01-11 00:52:00,32.0,32.0,-100.00,ESE,120,1.0,6.0,96,0.00,,,0.00,,2013-01-11 06:52:00,
2013-01-11 01:02:00,32.0,32.0,-100.00,ESE,120,4.0,7.0,96,0.00,,,0.00,,2013-01-11 07:02:00,
2013-01-11 01:12:00,32.0,32.0,-100.00,ESE,120,1.0,7.0,96,0.00,,,0.00,,2013-01-11 07:12:00,
2013-01-11 01:22:00,32.0,32.0,-100.00,ESE,120,2.0,4.0,96,0.00,,,0.00,,2013-01-11 07:22:00,
2013-01-11 01:32:00,32.0,32.0,-100.00,ESE,120,0.0,4.0,96,0.00,,,0.00,,2013-01-11 07:32:00,
2013-01-11 01:42:00,32.0,32.0,-100.00,ESE,120,2.0,4.0,96,0.00,,,0.00,,2013-01-11 07:42:00,
2013-01-11 01:52:00,33.0,32.0,-100.00,ESE,120,1.0,4.0,97,0.00,,,0.00,,2013-01-11 07:52:00,
2013-01-11 02:02:00,33.0,32.0,-100.00,ESE,120,1.0,3.0,97,0.00,,,0.00,,2013-01-11 08:02:00,
2013-01-11 02:12:00,33.0,32.0,-100.00,ESE,120,1.0,4.0,97,0.00,,,0.00,,2013-01-11 08:12:00,
2013-01-11 02:22:00,33.0,32.0,-100.00,ESE,120,1.0,4.0,97,0.00,,,0.00,,2013-01-11 08:22:00,
2013-01-11 02:32:00,33.0,32.0,-100.00,ESE,120,0.0,4.0,97,0.00,,,0.00,,2013-01-11 08:32:00,
2013-01-11 02:42:00,33.0,32.0,-100.00,ESE,120,0.0,2.0,97,0.00,,,0.00,,2013-01-11 08:42:00,
2013-01-11 02:52:00,33.0,32.0,-100.00,ESE,120,1.0,4.0,97,0.00,,,0.00,,2013-01-11 08:52:00,
2013-01-11 03:02:00,33.0,32.0,-100.00,ESE,120,1.0,2.0,97,0.00,,,0.00,,2013-01-11 09:02:00,
2013-01-11 03:12:00,33.0,32.0,-100.00,ESE,120,0.0,2.0,97,0.00,,,0.00,,2013-01-11 09:12:00,
2013-01-11 03:22:00,33.0,32.0,-100.00,ESE,120,1.0,6.0,97,0.00,,,0.00,,2013-01-11 09:22:00,
2013-01-11 03:32:00,33.0,32.0,-100.00,SE,125,0.0,3.0,97,0.00,,,0.00,,2013-01-11 09:32:00,
2013-01-11 03:42:00,33.0,32.0,-100.00,SE,125,0.0,2.0,97,0.00,,,0.00,,2013-01-11 09:42:00,
2013-01-11 03:52:00,33.0,32.0,-100.00,SE,125,0.0,4.0,97,0.00,,,0.00,,2013-01-11 09:52:00,
2013-01-11 04:02:00,33.0,32.0,-100.00,SE,125,1.0,2.0,97,0.00,,,0.00,,2013-01-11 10:02:00,
2013-01-11 04:12:00,33.0,32.0,-100.00,SSW,205,1.0,4.0,97,0.00,,,0.00,,2013-01-11 10:12:00,
2013-01-11 04:22:00,33.0,32.0,-100.00,SW,215,2.0,6.0,97,0.00,,,0.00,,2013-01-11 10:22:00,
2013-01-11 04:32:00,33.0,32.0,-100.00,South,180,2.0,5.0,97,0.00,,,0.00,,2013-01-11 10:32:00,
2013-01-11 04:42:00,33.0,32.0,-100.00,South,185,1.0,7.0,97,0.00,,,0.00,,2013-01-11 10:42:00,
2013-01-11 04:52:00,33.0,32.0,-100.00,South,170,2.0,6.0,97,0.00,,,0.00,,2013-01-11 10:52:00,
2013-01-11 05:02:00,33.0,32.0,-100.00,South,190,3.0,6.0,97,0.00,,,0.00,,2013-01-11 11:02:00,
2013-01-11 05:12:00,33.0,32.0,-100.00,SSW,205,2.0,7.0,97,0.00,,,0.00,,2013-01-11 11:12:00,
2013-01-11 05:22:00,33.0,32.0,-100.00,SSW,200,1.0,7.0,97,0.00,,,0.00,,2013-01-11 11:22:00,
2013-01-11 05:32:00,33.0,32.0,-100.00,SSW,205,2.0,6.0,97,0.00,,,0.00,,2013-01-11 11:32:00,
2013-01-11 05:42:00,33.0,32.0,-100.00,SSW,200,2.0,7.0,97,0.00,,,0.00,,2013-01-11 11:42:00,
2013-01-11 05:52:00,33.0,32.0,-100.00,SSW,210,4.0,6.0,97,0.00,,,0.00,,2013-01-11 11:52:00,
2013-01-11 06:03:00,33.0,32.0,-100.00,WSW,255,2.0,6.0,97,0.00,,,0.00,,2013-01-11 12:03:00,
2013-01-11 06:22:00,33.0,32.0,-100.00,SW,215,3.0,7.0,97,0.00,,,0.00,,2013-01-11 12:22:00,
2013-01-11 06:42:00,33.0,32.0,-100.00,SW,220,1.0,7.0,97,0.00,,,0.00,,2013-01-11 12:42:00,
2013-01-11 06:52:00,33.0,32.0,-100.00,SW,230,0.0,3.0,97,0.00,,,0.00,,2013-01-11 12:52:00,
2013-01-11 07:02:00,33.0,32.0,-100.00,SSW,200,1.0,5.0,97,0.00,,,0.00,,2013-01-11 13:02:00,
2013-01-11 07:12:00,33.0,32.0,-100.00,South,170,1.0,5.0,97,0.00,,,0.00,,2013-01-11 13:12:00,
2013-01-11 07:22:00,33.0,32.0,-100.00,SE,130,1.0,3.0,97,0.00,,,0.00,,2013-01-11 13:22:00,
2013-01-11 07:33:00,33.0,32.0,-100.00,SE,135,0.0,2.0,97,0.00,,,0.00,,2013-01-11 13:33:00,
2013-01-11 07:42:00,33.0,32.0,-100.00,SSE,155,1.0,4.0,97,0.00,,,0.00,,2013-01-11 13:42:00,
2013-01-11 07:52:00,33.0,32.0,-100.00,SE,145,1.0,4.0,97,0.00,,,0.00,,2013-01-11 13:52:00,
2013-01-11 08:03:00,33.0,32.0,-100.00,South,170,2.0,4.0,97,0.00,,,0.01,,2013-01-11 14:03:00,
2013-01-11 08:12:00,33.0,32.0,-100.00,South,180,1.0,3.0,97,0.00,,,0.01,,2013-01-11 14:12:00,
2013-01-11 08:22:00,33.0,32.0,-100.00,SSE,160,2.0,4.0,97,0.00,,,0.01,,2013-01-11 14:22:00,
2013-01-11 08:33:00,33.0,32.0,-100.00,SSE,155,1.0,2.0,97,0.00,,,0.01,,2013-01-11 14:33:00,
2013-01-11 08:42:00,33.0,32.0,-100.00,South,185,2.0,4.0,97,0.00,,,0.01,,2013-01-11 14:42:00,
2013-01-11 08:53:00,33.0,32.0,-100.00,SE,135,1.0,3.0,97,0.00,,,0.01,,2013-01-11 14:53:00,
2013-01-11 09:03:00,33.0,32.0,-100.00,SSE,155,2.0,4.0,97,0.00,,,0.01,,2013-01-11 15:03:00,
2013-01-11 09:12:00,33.0,32.0,-100.00,South,170,2.0,4.0,97,0.00,,,0.01,,2013-01-11 15:12:00,
2013-01-11 09:23:00,33.0,32.0,-100.00,SE,125,1.0,4.0,97,0.00,,,0.01,,2013-01-11 15:23:00,
2013-01-11 09:33:00,33.0,32.0,-100.00,South,185,1.0,3.0,97,0.00,,,0.01,,2013-01-11 15:33:00,
2013-01-11 10:03:00,34.0,34.0,-100.00,South,170,2.0,6.0,97,0.00,,,0.01,,2013-01-11 16:03:00,
2013-01-11 10:12:00,34.0,34.0,-100.00,South,180,3.0,7.0,97,0.00,,,0.01,,2013-01-11 16:12:00,
2013-01-11 10:22:00,34.0,34.0,-100.00,SSE,160,1.0,6.0,97,0.00,,,0.01,,2013-01-11 16:22:00,
2013-01-11 10:33:00,34.0,34.0,-100.00,South,185,2.0,4.0,97,0.00,,,0.01,,2013-01-11 16:33:00,
2013-01-11 10:42:00,34.0,34.0,-100.00,SSE,165,1.0,6.0,97,0.00,,,0.01,,2013-01-11 16:42:00,
2013-01-11 10:52:00,34.0,34.0,-100.00,SSE,150,1.0,3.0,97,0.00,,,0.01,,2013-01-11 16:52:00,
2013-01-11 11:03:00,34.0,34.0,-100.00,SSE,165,1.0,6.0,97,0.00,,,0.01,,2013-01-11 17:03:00,
2013-01-11 11:12:00,35.0,34.0,-100.00,South,175,2.0,4.0,97,0.00,,,0.01,,2013-01-11 17:12:00,
2013-01-11 11:22:00,35.0,34.0,-100.00,South,190,2.0,6.0,97,0.00,,,0.01,,2013-01-11 17:22:00,
2013-01-11 11:33:00,35.0,34.0,-100.00,SSW,210,3.0,7.0,97,0.00,,,0.01,,2013-01-11 17:33:00,
2013-01-11 11:43:00,35.0,34.0,-100.00,SSE,165,2.0,9.0,97,0.00,,,0.01,,2013-01-11 17:43:00,
2013-01-11 12:53:00,36.0,36.0,-100.00,SSE,155,2.0,5.0,97,0.00,,,0.01,,2013-01-11 18:53:00,
2013-01-11 13:02:00,36.0,36.0,-100.00,SSE,160,1.0,6.0,97,0.00,,,0.01,,2013-01-11 19:02:00,
2013-01-11 13:12:00,36.0,36.0,-100.00,South,175,3.0,4.0,97,0.00,,,0.01,,2013-01-11 19:12:00,
2013-01-11 13:22:00,36.0,36.0,-100.00,SSE,160,3.0,4.0,97,0.00,,,0.01,,2013-01-11 19:22:00,
2013-01-11 13:32:00,36.0,36.0,-100.00,SSE,160,1.0,4.0,97,0.00,,,0.01,,2013-01-11 19:32:00,
2013-01-11 13:43:00,36.0,36.0,-100.00,SE,145,0.0,2.0,97,0.00,,,0.01,,2013-01-11 19:43:00,
2013-01-11 13:52:00,36.0,36.0,-100.00,SE,145,1.0,4.0,97,0.00,,,0.01,,2013-01-11 19:52:00,
2013-01-11 14:12:00,35.0,34.0,-100.00,ESE,110,3.0,4.0,97,0.00,,,0.01,,2013-01-11 20:12:00,
2013-01-11 14:22:00,35.0,34.0,-100.00,SE,135,2.0,4.0,97,0.00,,,0.01,,2013-01-11 20:22:00,
2013-01-11 14:33:00,35.0,34.0,-100.00,ENE,75,4.0,7.0,97,0.00,,,0.01,,2013-01-11 20:33:00,
2013-01-11 14:43:00,35.0,34.0,-100.00,East,80,4.0,6.0,97,0.00,,,0.01,,2013-01-11 20:43:00,
2013-01-11 14:52:00,35.0,34.0,-100.00,ESE,115,1.0,4.0,97,0.00,,,0.01,,2013-01-11 20:52:00,
2013-01-11 15:03:00,35.0,34.0,-100.00,ENE,70,2.0,5.0,97,0.00,,,0.01,,2013-01-11 21:03:00,
2013-01-11 15:12:00,35.0,34.0,-100.00,East,95,2.0,5.0,97,0.00,,,0.01,,2013-01-11 21:12:00,
2013-01-11 15:23:00,35.0,34.0,-100.00,ESE,105,3.0,5.0,97,0.00,,,0.01,,2013-01-11 21:23:00,
2013-01-11 15:33:00,35.0,34.0,-100.00,ESE,105,4.0,7.0,97,0.00,,,0.01,,2013-01-11 21:33:00,
2013-01-11 15:42:00,35.0,34.0,-100.00,East,100,2.0,6.0,97,0.00,,,0.01,,2013-01-11 21:42:00,
2013-01-11 15:52:00,35.0,34.0,-100.00,East,80,3.0,7.0,97,0.00,,,0.01,,2013-01-11 21:52:00,
2013-01-11 16:02:00,35.0,34.0,-100.00,East,85,5.0,8.0,97,0.00,,,0.01,,2013-01-11 22:02:00,
2013-01-11 16:12:00,35.0,34.0,-100.00,East,80,4.0,7.0,97,0.00,,,0.01,,2013-01-11 22:12:00,
2013-01-11 16:22:00,35.0,34.0,-100.00,ESE,110,4.0,7.0,97,0.00,,,0.01,,2013-01-11 22:22:00,
2013-01-11 16:33:00,35.0,34.0,-100.00,ESE,115,3.0,6.0,97,0.00,,,0.01,,2013-01-11 22:33:00,
2013-01-11 16:42:00,35.0,34.0,-100.00,ESE,110,4.0,6.0,97,0.00,,,0.01,,2013-01-11 22:42:00,
2013-01-11 16:52:00,35.0,34.0,-100.00,ESE,120,2.0,7.0,97,0.00,,,0.01,,2013-01-11 22:52:00,
2013-01-11 17:02:00,35.0,34.0,-100.00,ESE,110,4.0,6.0,97,0.00,,,0.01,,2013-01-11 23:02:00,
2013-01-11 17:12:00,35.0,34.0,-100.00,ESE,110,3.0,6.0,97,0.00,,,0.01,,2013-01-11 23:12:00,
2013-01-11 18:02:00,36.0,36.0,-100.00,ESE,105,2.0,6.0,97,0.00,,,0.01,,2013-01-12 00:02:00,
2013-01-11 18:12:00,36.0,36.0,-100.00,SSE,155,1.0,6.0,97,0.00,,,0.01,,2013-01-12 00:12:00,
2013-01-11 18:22:00,36.0,36.0,-100.00,ESE,115,2.0,4.0,97,0.00,,,0.01,,2013-01-12 00:22:00,
2013-01-11 18:32:00,36.0,36.0,-100.00,SE,145,2.0,5.0,97,0.00,,,0.01,,2013-01-12 00:32:00,
2013-01-11 18:42:00,36.0,36.0,-100.00,ESE,115,2.0,6.0,97,0.00,,,0.01,,2013-01-12 00:42:00,
2013-01-11 18:52:00,36.0,36.0,-100.00,ESE,115,2.0,5.0,97,0.00,,,0.01,,2013-01-12 00:52:00,
2013-01-11 19:02:00,36.0,36.0,-100.00,SE,125,1.0,4.0,97,0.00,,,0.01,,2013-01-12 01:02:00,
2013-01-11 19:12:00,36.0,36.0,-100.00,East,100,1.0,4.0,97,0.00,,,0.01,,2013-01-12 01:12:00,
2013-01-11 19:22:00,36.0,36.0,-100.00,ENE,60,1.0,4.0,97,0.00,,,0.01,,2013-01-12 01:22:00,
2013-01-11 19:32:00,36.0,36.0,-100.00,SE,135,1.0,5.0,97,0.00,,,0.01,,2013-01-12 01:32:00,
2013-01-11 19:42:00,36.0,36.0,-100.00,SE,140,2.0,5.0,97,0.00,,,0.01,,2013-01-12 01:42:00,
2013-01-11 19:52:00,36.0,36.0,-100.00,ESE,115,1.0,4.0,97,0.00,,,0.00,,2013-01-12 01:52:00,
2013-01-11 20:02:00,36.0,36.0,-100.00,SE,130,1.0,6.0,97,0.00,,,0.00,,2013-01-12 02:02:00,
2013-01-11 20:12:00,36.0,36.0,-100.00,ESE,105,2.0,3.0,97,0.00,,,0.00,,2013-01-12 02:12:00,
2013-01-11 20:22:00,36.0,36.0,-100.00,ESE,120,1.0,2.0,97,0.00,,,0.00,,2013-01-12 02:22:00,
2013-01-11 20:32:00,36.0,36.0,-100.00,SE,135,0.0,3.0,97,0.00,,,0.00,,2013-01-12 02:32:00,
2013-01-11 20:42:00,36.0,36.0,-100.00,SE,145,2.0,4.0,97,0.00,,,0.00,,2013-01-12 02:42:00,
2013-01-11 20:52:00,36.0,36.0,-100.00,SE,135,2.0,7.0,97,0.00,,,0.00,,2013-01-12 02:52:00,
2013-01-11 21:02:00,36.0,36.0,-100.00,ESE,105,1.0,4.0,97,0.00,,,0.00,,2013-01-12 03:02:00,
2013-01-11 21:12:00,36.0,36.0,-100.00,SSE,155,2.0,4.0,97,0.00,,,0.00,,2013-01-12 03:12:00,
2013-01-11 21:22:00,36.0,36.0,-100.00,ESE,115,2.0,5.0,97,0.00,,,0.00,,2013-01-12 03:22:00,
2013-01-11 21:32:00,36.0,36.0,-100.00,ESE,105,2.0,4.0,97,0.00,,,0.00,,2013-01-12 03:32:00,
2013-01-11 21:42:00,36.0,36.0,-100.00,ESE,110,1.0,2.0,97,0.00,,,0.00,,2013-01-12 03:42:00,
2013-01-11 21:52:00,36.0,36.0,-100.00,SE,145,1.0,3.0,97,0.00,,,0.00,,2013-01-12 03:52:00,
2013-01-11 22:02:00,36.0,36.0,-100.00,SE,130,2.0,4.0,97,0.00,,,0.00,,2013-01-12 04:02:00,
2013-01-11 22:12:00,36.0,36.0,-100.00,SE,135,4.0,6.0,97,0.00,,,0.00,,2013-01-12 04:12:00,
2013-01-11 22:22:00,37.0,36.0,-100.00,SE,125,1.0,6.0,97,0.00,,,0.00,,2013-01-12 04:22:00,
2013-01-11 22:32:00,36.0,36.0,-100.00,ESE,115,2.0,4.0,97,0.00,,,0.00,,2013-01-12 04:32:00,
2013-01-11 22:42:00,37.0,36.0,-100.00,SE,125,1.0,5.0,97,0.00,,,0.00,,2013-01-12 04:42:00,
2013-01-11 22:52:00,37.0,36.0,-100.00,SSE,155,1.0,5.0,97,0.00,,,0.00,,2013-01-12 04:52:00,
2013-01-11 23:03:00,36.0,36.0,-100.00,South,180,0.0,4.0,97,0.00,,,0.00,,2013-01-12 05:03:00,
2013-01-11 23:12:00,37.0,36.0,-100.00,SE,145,2.0,6.0,97,0.00,,,0.00,,2013-01-12 05:12:00,
2013-01-11 23:22:00,37.0,36.0,-100.00,ESE,110,1.0,6.0,97,0.00,,,0.00,,2013-01-12 05:22:00,
2013-01-11 23:32:00,37.0,36.0,-100.00,South,185,1.0,4.0,97,0.00,,,0.00,,2013-01-12 05:32:00,